Torna al catalogo

DAMPE

AttivoScienzaSSO
NORAD 41173·PAYLOAD·🇨🇳 China

Lanciato Dec 17, 2015 da Jiuquan Satellite Launch Center

Loading…

Prossimi Passaggi (prossime 24 ore)

TLE

AggiornatoSource: Space-Track

Epoca: Sep 14, 2026, 14:03 UTC

1 41173U 15078A   26257.58600486  .00001083  00000-0  38723-4 0  9995
2 41173  97.4592 263.5231 0013408 114.3122 245.9521 15.30976632598222

Traccia DAMPE in tempo reale con AllMySat

Download on the App Store